Voltar ao catálogo

USA 142

AtivoMilitarGTO
NORAD 25669·PAYLOAD·🇺🇸 United States

Lançado Apr 9, 1999 de Cape Canaveral Space Force Station

Loading…

TLE

EnvelhecendoSource: Space-Track

Época: Sep 14, 2026, 09:12 UTC

1 25669U 99017A   26257.38397354 -.00000033  00000-0  11374-2 0  9993
2 25669  29.3506  34.5781 7101185 192.0371 131.9167  2.33053651 20377

Acompanhe USA 142 em tempo real com AllMySat

Download on the App Store